When you browse on this site, cookies collect data to enhance your experience and personalize the content and advertising you see.
Visit our Privacy Policy to learn more. By continuing to use the site, you agree to this use of cookies and data.
  • In Netherlands
  • List of Countries
  • For 7 days
  • Water Temperature
  • Weather Map
  • Weather Widgets
  • user-avatar
    Login

    Hourly Weather Aylesbury

    Today, 19 September, Thursday

    Time Temperature Precipitation Wind Pressure Humidity
    00:00 +10°C° 0 mm 0 mps 765 mmHg 81%
    01:00 +10°C° 0 mm 0 mps 765 mmHg 82%
    02:00 +10°C° 0 mm 0 mps 764 mmHg 83%
    03:00 +10°C° 0 mm 0 mps 764 mmHg 84%
    04:00 +9°C° 0 mm 0 mps 764 mmHg 84%
    05:00 +9°C° 0 mm 0 mps 764 mmHg 85%
    06:00 +9°C° 0 mm 0 mps 765 mmHg 86%
    07:00 +11°C° 0 mm 0 mps 765 mmHg 79%
    08:00 +13°C° 0 mm 0 mps 765 mmHg 73%
    09:00 +15°C° 0 mm 0 mps 765 mmHg 66%
    10:00 +18°C° 0 mm 1 mps 765 mmHg 62%
    11:00 +19°C° 0 mm 1 mps 765 mmHg 58%
    12:00 +21°C° 0 mm 1 mps 765 mmHg 54%
    13:00 +21°C° 0 mm 1 mps 765 mmHg 53%
    14:00 +21°C° 0 mm 1 mps 765 mmHg 52%
    15:00 +22°C° 0 mm 1 mps 764 mmHg 51%
    16:00 +20°C° 0 mm 1 mps 764 mmHg 57%
    17:00 +19°C° 0 mm 1 mps 764 mmHg 62%
    18:00 +18°C° 0 mm 1 mps 764 mmHg 67%
    19:00 +16°C° 0 mm 1 mps 764 mmHg 70%
    20:00 +15°C° 0 mm 2 mps 764 mmHg 73%
    21:00 +14°C° 0 mm 2 mps 764 mmHg 76%
    22:00 +13°C° 0 mm 2 mps 764 mmHg 79%
    23:00 +13°C° 0 mm 2 mps 764 mmHg 81%

    Tomorrow, 20 September, Friday

    Time Temperature Precipitation Wind Pressure Humidity
    00:00 +12°C° 0 mm 2 mps 764 mmHg 84%
    01:00 +12°C° 0 mm 1 mps 763 mmHg 86%
    02:00 +12°C° 0 mm 1 mps 763 mmHg 88%
    03:00 +11°C° 0 mm 1 mps 763 mmHg 90%
    04:00 +11°C° 0 mm 1 mps 762 mmHg 91%
    05:00 +10°C° 0 mm 2 mps 762 mmHg 92%
    06:00 +10°C° 0 mm 2 mps 762 mmHg 93%
    07:00 +12°C° 0 mm 3 mps 762 mmHg 84%
    08:00 +13°C° 0 mm 3 mps 762 mmHg 75%
    09:00 +15°C° 0 mm 4 mps 762 mmHg 66%
    10:00 +16°C° 0 mm 5 mps 761 mmHg 60%
    11:00 +19°C° 0 mm 5 mps 761 mmHg 55%
    12:00 +20°C° 0 mm 6 mps 760 mmHg 49%
    13:00 +20°C° 0 mm 6 mps 759 mmHg 49%
    14:00 +20°C° 0 mm 6 mps 759 mmHg 48%
    15:00 +20°C° 0 mm 6 mps 758 mmHg 48%
    16:00 +17°C° 0 mm 6 mps 757 mmHg 53%
    17:00 +16°C° 0 mm 5 mps 757 mmHg 59%
    18:00 +14°C° 0 mm 5 mps 756 mmHg 65%
    19:00 +14°C° 0 mm 5 mps 756 mmHg 67%
    20:00 +13°C° 0 mm 5 mps 756 mmHg 69%
    21:00 +13°C° 0 mm 5 mps 756 mmHg 71%
    22:00 +13°C° 0 mm 5 mps 755 mmHg 70%
    23:00 +13°C° 0 mm 5 mps 755 mmHg 69%

    Day after tomorrow, 21 September, Saturday

    Time Temperature Precipitation Wind Pressure Humidity
    00:00 +13°C° 0 mm 5 mps 754 mmHg 68%
    01:00 +13°C° 0 mm 4 mps 754 mmHg 68%
    02:00 +12°C° 0 mm 4 mps 753 mmHg 68%
    03:00 +12°C° 0 mm 4 mps 753 mmHg 67%
    04:00 +12°C° 0 mm 4 mps 752 mmHg 68%
    05:00 +11°C° 0 mm 4 mps 752 mmHg 69%
    06:00 +11°C° 0 mm 4 mps 751 mmHg 70%
    07:00 +12°C° 0 mm 5 mps 751 mmHg 66%
    08:00 +14°C° 0 mm 5 mps 751 mmHg 63%
    09:00 +15°C° 0 mm 6 mps 751 mmHg 60%
    10:00 +17°C° 0 mm 6 mps 750 mmHg 57%
    11:00 +20°C° 0 mm 6 mps 750 mmHg 54%
    12:00 +21°C° 0 mm 5 mps 749 mmHg 52%
    13:00 +22°C° 0 mm 5 mps 749 mmHg 52%
    14:00 +22°C° 0 mm 5 mps 748 mmHg 53%
    15:00 +23°C° 0 mm 5 mps 747 mmHg 53%
    16:00 +22°C° 0 mm 5 mps 747 mmHg 59%
    17:00 +21°C° 0 mm 4 mps 747 mmHg 64%
    18:00 +19°C° 0 mm 4 mps 747 mmHg 70%
    19:00 +19°C° 0 mm 4 mps 746 mmHg 71%
    20:00 +19°C° 0 mm 4 mps 746 mmHg 73%
    21:00 +18°C° 0 mm 4 mps 746 mmHg 74%
    22:00 +18°C° 0.2 mm 4 mps 746 mmHg 76%
    23:00 +18°C° 0.2 mm 4 mps 745 mmHg 79%

    22 September, Sunday

    Time Temperature Precipitation Wind Pressure Humidity
    00:00 +18°C° 0.2 mm 4 mps 745 mmHg 81%
    01:00 +18°C° 0.2 mm 4 mps 744 mmHg 82%
    02:00 +18°C° 0.2 mm 4 mps 744 mmHg 84%
    03:00 +18°C° 0.2 mm 3 mps 744 mmHg 85%
    04:00 +18°C° 0 mm 4 mps 743 mmHg 87%
    05:00 +17°C° 0 mm 4 mps 743 mmHg 89%
    06:00 +17°C° 0 mm 4 mps 743 mmHg 91%
    07:00 +18°C° 0.1 mm 4 mps 743 mmHg 89%
    08:00 +19°C° 0.1 mm 5 mps 743 mmHg 88%
    09:00 +19°C° 0.1 mm 5 mps 744 mmHg 86%
    10:00 +19°C° 1.5 mm 5 mps 744 mmHg 85%
    11:00 +17°C° 1.5 mm 5 mps 744 mmHg 84%
    12:00 +16°C° 1.5 mm 5 mps 744 mmHg 83%
    13:00 +17°C° 0 mm 5 mps 744 mmHg 78%
    14:00 +19°C° 0 mm 5 mps 744 mmHg 73%
    15:00 +20°C° 0 mm 6 mps 744 mmHg 67%
    16:00 +19°C° 0 mm 5 mps 744 mmHg 71%
    17:00 +18°C° 0 mm 4 mps 744 mmHg 75%
    18:00 +17°C° 0 mm 3 mps 744 mmHg 79%
    19:00 +16°C° 0 mm 3 mps 745 mmHg 82%
    20:00 +14°C° 0 mm 3 mps 745 mmHg 86%
    21:00 +14°C° 0 mm 3 mps 745 mmHg 89%
    22:00 +13°C° 0 mm 3 mps 746 mmHg 91%
    23:00 +13°C° 0 mm 4 mps 746 mmHg 92%

    23 September, Monday

    Time Temperature Precipitation Wind Pressure Humidity
    00:00 +13°C° 0 mm 5 mps 746 mmHg 94%
    01:00 +12°C° 0 mm 5 mps 746 mmHg 93%
    02:00 +12°C° 0 mm 5 mps 747 mmHg 93%
    03:00 +12°C° 0 mm 5 mps 747 mmHg 92%
    04:00 +12°C° 0 mm 5 mps 747 mmHg 91%
    05:00 +12°C° 0 mm 5 mps 747 mmHg 90%
    06:00 +12°C° 0 mm 5 mps 748 mmHg 89%
    07:00 +13°C° 0 mm 5 mps 748 mmHg 84%
    08:00 +14°C° 0 mm 5 mps 748 mmHg 80%
    09:00 +15°C° 0 mm 5 mps 749 mmHg 75%
    10:00 +16°C° 0 mm 5 mps 749 mmHg 70%
    11:00 +17°C° 0 mm 5 mps 749 mmHg 64%
    12:00 +19°C° 0 mm 5 mps 749 mmHg 59%
    13:00 +19°C° 0.1 mm 5 mps 749 mmHg 61%
    14:00 +19°C° 0.1 mm 6 mps 748 mmHg 63%
    15:00 +19°C° 0.1 mm 6 mps 748 mmHg 64%
    16:00 +17°C° 0.2 mm 5 mps 748 mmHg 72%
    17:00 +15°C° 0.2 mm 5 mps 748 mmHg 80%
    18:00 +14°C° 0.2 mm 4 mps 747 mmHg 88%
    19:00 +14°C° 0.3 mm 4 mps 748 mmHg 90%
    20:00 +15°C° 0.3 mm 4 mps 748 mmHg 92%
    21:00 +15°C° 0.3 mm 4 mps 748 mmHg 93%
    22:00 +15°C° 0 mm 4 mps 748 mmHg 94%
    23:00 +17°C° 0 mm 3 mps 748 mmHg 95%

    24 September, Tuesday

    Time Temperature Precipitation Wind Pressure Humidity
    00:00 +17°C° 0 mm 3 mps 747 mmHg 96%
    01:00 +17°C° 0 mm 3 mps 747 mmHg 96%
    02:00 +16°C° 0 mm 3 mps 747 mmHg 96%
    03:00 +16°C° 0 mm 3 mps 747 mmHg 96%
    04:00 +16°C° 0 mm 3 mps 747 mmHg 96%
    05:00 +14°C° 0 mm 3 mps 747 mmHg 97%
    06:00 +14°C° 0 mm 3 mps 746 mmHg 97%
    07:00 +15°C° 0.3 mm 4 mps 746 mmHg 95%
    08:00 +16°C° 0.3 mm 5 mps 745 mmHg 93%
    09:00 +17°C° 0.3 mm 6 mps 744 mmHg 91%
    10:00 +17°C° 2.2 mm 7 mps 743 mmHg 91%
    11:00 +17°C° 2.2 mm 8 mps 742 mmHg 92%
    12:00 +16°C° 2.2 mm 9 mps 742 mmHg 92%
    13:00 +17°C° 0.3 mm 9 mps 741 mmHg 87%
    14:00 +17°C° 0.3 mm 9 mps 741 mmHg 82%
    15:00 +17°C° 0.3 mm 10 mps 741 mmHg 77%
    16:00 +16°C° 0.2 mm 9 mps 741 mmHg 80%
    17:00 +15°C° 0.2 mm 8 mps 742 mmHg 82%
    18:00 +15°C° 0.2 mm 7 mps 742 mmHg 85%
    19:00 +14°C° 0 mm 6 mps 742 mmHg 87%
    20:00 +14°C° 0 mm 6 mps 743 mmHg 89%
    21:00 +13°C° 0 mm 5 mps 743 mmHg 91%
    22:00 +13°C° 0 mm 5 mps 743 mmHg 92%
    23:00 +14°C° 0 mm 5 mps 742 mmHg 92%
    Show more